Home > Weather > Orenburg > Past weeks

Flag for Russia Weather for the Past 2 Weeks in Orenburg, Russia

Now
52 °F

Overcast.


Feels Like: 46 °F
Forecast: 47 / 58 °F
Wind: 22 mph from East

Location: Orenburg / Tsentralny

Current Time: May 1, 2016 at 11:52:58 AM

Latest Report: May 1, 2016 at 11:00 AM


Visibility: N/A

Pressure: 29.98 "Hg

Humidity: 67%

Dew Point: 41 °F

Location of OrenburgLocation

Historic Weather in Orenburg — Graph

°F

Orenburg Temperature Yesterday

Maximum temperature yesterday: 59 °F (at 2:00 PM)
Minimum temperature yesterday: 46 °F (at 2:00 AM)
Average temperature yesterday: 52 °F

High & Low Weather Summary for the Past Weeks

 TemperatureHumidityPressure
High75 °F (Apr 16, 3:00 PM)100% (Apr 20, 2:00 AM)30.27 "Hg (Apr 20, 2:00 AM)
Low36 °F (Apr 21, 6:30 AM)26% (Apr 27, 1:30 PM)29.62 "Hg (Apr 18, 4:30 PM)
Average55 °F64%29.97 "Hg
* Reported Apr 16 9:00 AM — May 1 9:30 AM, Orenburg, Weather by CustomWeather, © 2016

Note: Actual official high and low records may vary slightly from our data, if they occured in-between our weather recording intervals... More about our weather records

Advertising

Orenburg Weather History for the Previous 24 Hours

Scroll right to see more
 ConditionsComfort  
Time TempWeatherWind HumidityBarometerVisibility
9:30 AM
Sun, May 1
50 °FOvercast.20 mph76%30.01 "HgN/A
9:00 AM50 °FOvercast.17 mph76%30.01 "HgN/A
8:00 AM50 °FOvercast.17 mph82%30.01 "HgN/A
7:30 AM48 °FOvercast.15 mph82%30.01 "HgN/A
7:00 AM48 °FOvercast.15 mph82%30.01 "HgN/A
6:30 AM48 °FOvercast.15 mph82%30.01 "HgN/A
6:00 AM48 °FOvercast.15 mph82%30.01 "HgN/A
5:30 AM48 °FOvercast.15 mph82%30.01 "HgN/A
5:00 AM48 °FOvercast.15 mph82%30.01 "HgN/A
4:30 AM50 °FOvercast.15 mph82%30.01 "HgN/A
4:00 AM50 °FOvercast.15 mph82%30.01 "HgN/A
3:30 AM50 °FOvercast.17 mph82%30.01 "HgN/A
3:00 AM50 °FOvercast.15 mph82%30.04 "HgN/A
2:30 AM50 °FOvercast.15 mph88%30.04 "HgN/A
2:00 AM50 °FOvercast.17 mph88%30.04 "HgN/A
1:30 AM50 °FSprinkles. Overcast.17 mph88%30.04 "Hg4 mi
1:00 AM50 °FOvercast.15 mph88%30.04 "HgN/A
12:30 AM50 °FOvercast.15 mph88%30.04 "HgN/A
12:00 AM50 °FOvercast.15 mph88%30.07 "HgN/A
11:30 PM
Sat, Apr 30
50 °FSprinkles. Overcast.15 mph94%30.07 "Hg3 mi
11:00 PM50 °FSprinkles. Overcast.13 mph94%30.07 "Hg3 mi
10:30 PM52 °FSprinkles. Overcast.15 mph88%30.09 "Hg3 mi
10:00 PM52 °FSprinkles. Overcast.15 mph82%30.09 "Hg3 mi
9:30 PM52 °FSprinkles. Overcast.17 mph82%30.09 "Hg3 mi
9:00 PM50 °FOvercast.15 mph94%30.09 "HgN/A
8:30 PM52 °FSprinkles. Overcast.17 mph88%30.09 "Hg4 mi
8:00 PM52 °FSprinkles. Overcast.15 mph88%30.09 "Hg4 mi
7:30 PM50 °FSprinkles. Overcast.10 mph94%30.09 "Hg4 mi
7:00 PM52 °FSprinkles. Overcast.10 mph88%30.12 "Hg3 mi
6:30 PM52 °FSprinkles. Overcast.10 mph82%30.12 "Hg4 mi
6:00 PM52 °FSprinkles. Overcast.10 mph82%30.12 "Hg4 mi
5:30 PM52 °FSprinkles. Overcast.13 mph77%30.12 "Hg4 mi
5:00 PM52 °FSprinkles. Overcast.10 mph77%30.12 "Hg4 mi
4:30 PM52 °FSprinkles. Overcast.15 mph77%30.12 "Hg6 mi
4:00 PM57 °FSprinkles. Overcast.17 mph48%30.12 "HgN/A
3:30 PM59 °FPartly sunny.17 mph42%30.12 "HgN/A
3:00 PM59 °FPartly sunny.17 mph39%30.12 "HgN/A
2:30 PM59 °FPartly sunny.20 mph39%30.12 "HgN/A
2:00 PM59 °FPartly sunny.17 mph39%30.15 "HgN/A
1:30 PM57 °FPartly sunny.20 mph44%30.15 "HgN/A
1:00 PM55 °FPartly sunny.22 mph47%30.15 "HgN/A
12:30 PM54 °FLight rain. Partly sunny.20 mph58%30.18 "HgN/A
12:00 PM54 °FLight rain. Partly sunny.20 mph63%30.18 "HgN/A
11:30 AM52 °FLight rain. Partly sunny.17 mph72%30.18 "HgN/A
11:00 AM50 °FLight rain. Partly sunny.17 mph71%30.21 "HgN/A
Weather by CustomWeather, © 2016

See weather overviewHow to use our weather pages